| time (UTC) | temp C | wind direction | speed KPH | gust KPH | rain 1hr cm | rain 24hr cm | rain mn cm | humidity % | barometer mb |
| 20260504044433 | 11 | 0 | 1.6 | 9.7 | 0.00 | 0.00 | 0.00 | 60 | 1016.8 |
| 20260504043419 | 11 | 0 | 1.6 | 6.4 | 0.00 | 0.00 | 0.00 | 60 | 1016.9 |
| 20260504042444 | 11 | 0 | 1.6 | 9.7 | 0.00 | 0.00 | 0.00 | 59 | 1017.1 |
| 20260504040310 | 11 | 0 | 0.0 | 1.6 | 0.00 | 0.00 | 0.00 | 57 | 1017.2 |
| 20260504035252 | 12 | 0 | 0.0 | 0.0 | 0.00 | 0.00 | 0.00 | 56 | 1017.0 |
| 20260504034233 | 11 | 0 | 3.2 | 12.9 | 0.00 | 0.00 | 0.00 | 59 | 1017.2 |
| 20260504033254 | 11 | 0 | 1.6 | 12.9 | 0.00 | 0.00 | 0.00 | 58 | 1017.2 |
| 20260504032317 | 11 | 0 | 1.6 | 6.4 | 0.00 | 0.00 | 0.00 | 57 | 1017.4 |
| 20260504031257 | 12 | 0 | 1.6 | 9.7 | 0.00 | 0.00 | 0.00 | 56 | 1017.4 |
| 20260504030322 | 12 | 184 | 1.6 | 9.7 | 0.00 | 0.00 | 0.00 | 55 | 1017.4 |
| 20260504025307 | 12 | 162 | 1.6 | 0.0 | 0.00 | 0.00 | 0.00 | 57 | 1016.9 |
| 20260504024244 | 12 | 173 | 3.2 | 20.9 | 0.00 | 0.00 | 0.00 | 57 | 1017.0 |
| 20260504023258 | 12 | 263 | 3.2 | 9.7 | 0.00 | 0.00 | 0.00 | 60 | 1017.0 |
| 20260504022237 | 12 | 217 | 1.6 | 6.4 | 0.00 | 0.00 | 0.00 | 59 | 1017.0 |
| 20260504021225 | 12 | 225 | 0.0 | 6.4 | 0.00 | 0.00 | 0.00 | 59 | 1017.1 |
| 20260504015104 | 12 | 264 | 0.0 | 6.4 | 0.00 | 0.00 | 0.00 | 56 | 1017.0 |
| 20260504012940 | 12 | 221 | 0.0 | 0.0 | 0.00 | 0.00 | 0.00 | 55 | 1016.9 |
| 20260504010738 | 12 | 226 | 0.0 | 0.0 | 0.00 | 0.00 | 0.00 | 55 | 1016.8 |
| 20260504005735 | 13 | 212 | 0.0 | 1.6 | 0.00 | 0.00 | 0.00 | 55 | 1016.5 |
| 20260504004710 | 13 | 225 | 1.6 | 4.8 | 0.00 | 0.00 | 0.00 | 57 | 1016.5 |
| 20260504003715 | 13 | 169 | 0.0 | 0.0 | 0.00 | 0.00 | 0.00 | 58 | 1016.6 |
| 20260504001519 | 13 | 138 | 0.0 | 0.0 | 0.00 | 0.00 | 0.00 | 59 | 1016.6 |
| 20260504000505 | 13 | 138 | 0.0 | 0.0 | 0.00 | 0.00 | 0.00 | 57 | 1016.6 |
| 20260503234341 | 14 | 138 | 1.6 | 4.8 | 0.00 | 0.00 | 0.00 | 55 | 1016.6 |
| 20260503233336 | 15 | 0 | 1.6 | 6.4 | 0.00 | 0.00 | 0.00 | 55 | 1016.6 |
| 20260503232350 | 15 | 0 | 0.0 | 6.4 | 0.00 | 0.00 | 0.00 | 54 | 1016.8 |
| 20260503231341 | 15 | 0 | 0.0 | 0.0 | 0.00 | 0.00 | 0.00 | 52 | 1016.9 |
| 20260503225254 | 16 | 0 | 1.6 | 14.5 | 0.00 | 0.00 | 0.00 | 51 | 1016.9 |
| 20260503224257 | 16 | 144 | 0.0 | 0.0 | 0.00 | 0.00 | 0.00 | 53 | 1016.9 |
| 20260503223238 | 16 | 234 | 1.6 | 12.9 | 0.00 | 0.00 | 0.00 | 52 | 1016.9 |
| 20260503222216 | 16 | 189 | 3.2 | 12.9 | 0.00 | 0.00 | 0.00 | 51 | 1016.9 |
| 20260503221222 | 16 | 153 | 3.2 | 12.9 | 0.00 | 0.00 | 0.00 | 49 | 1017.0 |
| 20260503220149 | 16 | 178 | 3.2 | 14.5 | 0.00 | 0.00 | 0.00 | 47 | 1017.0 |
| 20260503215150 | 17 | 175 | 1.6 | 14.5 | 0.00 | 0.00 | 0.00 | 49 | 1017.1 |
| 20260503214126 | 17 | 148 | 0.0 | 12.9 | 0.00 | 0.00 | 0.00 | 47 | 1017.4 |
| 20260503213140 | 16 | 132 | 1.6 | 14.5 | 0.00 | 0.00 | 0.00 | 46 | 1017.4 |
| 20260503212148 | 16 | 324 | 3.2 | 14.5 | 0.00 | 0.00 | 0.00 | 46 | 1017.5 |
| 20260503211133 | 17 | 41 | 3.2 | 14.5 | 0.00 | 0.00 | 0.00 | 45 | 1017.7 |
| 20260503210144 | 17 | 136 | 3.2 | 14.5 | 0.00 | 0.00 | 0.00 | 44 | 1017.7 |
| 20260503205138 | 16 | 121 | 1.6 | 17.7 | 0.00 | 0.00 | 0.00 | 45 | 1018.0 |
| 20260503204127 | 17 | 124 | 3.2 | 17.7 | 0.00 | 0.00 | 0.00 | 43 | 1018.1 |
| 20260503203150 | 17 | 150 | 1.6 | 17.7 | 0.00 | 0.00 | 0.00 | 42 | 1018.1 |
| 20260503202155 | 16 | 154 | 3.2 | 17.7 | 0.00 | 0.00 | 0.00 | 40 | 1018.2 |
| 20260503201129 | 17 | 201 | 3.2 | 14.5 | 0.00 | 0.00 | 0.00 | 41 | 1018.5 |
| 20260503200124 | 16 | 190 | 3.2 | 17.7 | 0.00 | 0.00 | 0.00 | 43 | 1018.5 |
| 20260503195137 | 16 | 67 | 3.2 | 17.7 | 0.00 | 0.00 | 0.00 | 42 | 1018.6 |
| 20260503193014 | 16 | 165 | 3.2 | 12.9 | 0.00 | 0.00 | 0.00 | 39 | 1018.8 |
| 20260503191957 | 16 | 111 | 1.6 | 12.9 | 0.00 | 0.00 | 0.00 | 37 | 1019.1 |
| 20260503191017 | 16 | 224 | 3.2 | 17.7 | 0.00 | 0.00 | 0.00 | 42 | 1019.2 |
| 20260503190010 | 17 | 200 | 3.2 | 17.7 | 0.00 | 0.00 | 0.00 | 47 | 1019.2 |
| 20260503183839 | 16 | 212 | 3.2 | 12.9 | 0.00 | 0.00 | 0.00 | 45 | 1019.2 |
| 20260503182828 | 15 | 188 | 3.2 | 12.9 | 0.00 | 0.00 | 0.00 | 47 | 1019.6 |
| 20260503181825 | 15 | 242 | 3.2 | 17.7 | 0.00 | 0.00 | 0.00 | 49 | 1019.6 |
| 20260503180823 | 14 | 167 | 3.2 | 17.7 | 0.00 | 0.00 | 0.00 | 47 | 1019.7 |
| 20260503173600 | 14 | 142 | 3.2 | 14.5 | 0.00 | 0.00 | 0.00 | 52 | 1020.1 |
| 20260503172539 | 13 | 194 | 3.2 | 14.5 | 0.00 | 0.00 | 0.00 | 50 | 1020.3 |
| 20260503171543 | 12 | 31 | 1.6 | 14.5 | 0.00 | 0.00 | 0.00 | 51 | 1020.3 |
| 20260503170547 | 12 | 308 | 3.2 | 14.5 | 0.00 | 0.00 | 0.00 | 51 | 1020.3 |
| 20260503150404 | 10 | 122 | 0.0 | 9.7 | 0.00 | 0.00 | 0.00 | 58 | 1020.8 |
| 20260503140237 | 9 | 0 | 1.6 | 9.7 | 0.00 | 0.00 | 0.00 | 66 | 1020.7 |
| 20260503131158 | 8 | 0 | 1.6 | 6.4 | 0.00 | 0.00 | 0.00 | 66 | 1020.1 |
| 20260503130148 | 8 | 0 | 1.6 | 6.4 | 0.00 | 0.00 | 0.00 | 69 | 1020.1 |
| 20260503120106 | 7 | 0 | 0.0 | 6.4 | 0.00 | 0.00 | 0.00 | 74 | 1019.8 |
| 20260503072512 | 6 | 0 | 0.0 | 4.8 | 0.00 | 0.00 | 0.00 | 83 | 1017.6 |
| 20260503071506 | 6 | 0 | 1.6 | 4.8 | 0.00 | 0.00 | 0.00 | 82 | 1017.6 |
| 20260503070448 | 6 | 0 | 0.0 | 4.8 | 0.00 | 0.00 | 0.00 | 82 | 1017.4 |
| 20260503053305 | 7 | 0 | 0.0 | 0.0 | 0.00 | 0.00 | 0.00 | 78 | 1017.2 |
| 20260503052300 | 7 | 0 | 0.0 | 0.0 | 0.00 | 0.00 | 0.00 | 77 | 1017.1 |
| 20260503051309 | 7 | 0 | 0.0 | 4.8 | 0.00 | 0.00 | 0.00 | 77 | 1017.0 |
| 20260503050309 | 7 | 0 | 0.0 | 0.0 | 0.00 | 0.00 | 0.00 | 76 | 1017.0 |